EW6281 Weather Reports


time (UTC)temp
F
wind
direction
speed
knots
gust
knots
rain 1hr
in
rain 24hr
in
rain mn
in
humidity
%
barometer
mb
20260510201601 43 28 0.9 4.3 0.00 0.00 0.00 68 1014.6
20260510200055 44 15 1.7 7.0 0.00 0.00 0.00 68 1014.7
20260510194604 44 19 1.7 7.8 0.00 0.00 0.00 68 1014.5
20260510193055 45 32 1.7 9.6 0.00 0.00 0.00 67 1014.6
20260510191554 46 22 1.7 9.6 0.00 0.00 0.00 66 1014.6
20260510190108 47 0 3.5 13.0 0.00 0.00 0.00 65 1014.5
20260510184605 48 90 2.6 9.6 0.00 0.00 0.00 66 1014.6
20260510183059 48 126 2.6 10.4 0.00 0.00 0.00 65 1014.7
20260510181618 49 35 2.6 8.7 0.00 0.00 0.00 63 1014.6
20260510180059 50 15 3.5 9.6 0.00 0.00 0.00 63 1014.7
20260510174605 50 26 2.6 7.8 0.00 0.00 0.00 62 1014.8
20260510173055 51 35 1.7 11.3 0.00 0.00 0.00 63 1014.7
20260510171619 51 76 2.6 12.2 0.00 0.00 0.00 62 1014.8
20260510170055 51 51 2.6 12.2 0.00 0.00 0.00 63 1015.0
20260510164601 52 18 2.6 8.7 0.00 0.00 0.00 62 1015.0
20260510163104 52 95 2.6 9.6 0.00 0.00 0.00 63 1015.2
20260510161558 53 36 1.7 10.4 0.00 0.00 0.00 62 1015.4
20260510160057 53 54 1.7 5.2 0.00 0.00 0.00 63 1015.6
20260510154600 53 11 2.6 7.8 0.00 0.00 0.00 63 1015.7
20260510153059 53 44 1.7 10.4 0.00 0.00 0.00 65 1015.8
20260510151557 52 32 3.5 10.4 0.00 0.00 0.00 64 1015.9
20260510150056 53 26 2.6 8.7 0.00 0.00 0.00 65 1016.0
20260510144605 52 57 2.6 10.4 0.00 0.00 0.00 65 1016.2
20260510143057 53 18 3.5 13.9 0.00 0.00 0.00 65 1016.4
20260510141556 52 87 3.5 11.3 0.00 0.00 0.00 64 1016.6
20260510140051 52 31 2.6 9.6 0.00 0.00 0.00 66 1016.6
20260510134556 52 47 3.5 11.3 0.00 0.00 0.00 67 1016.7
20260510133102 51 18 1.7 10.4 0.00 0.00 0.00 69 1016.9
20260510131554 51 46 2.6 7.0 0.00 0.00 0.00 70 1016.9
20260510130057 50 27 2.6 10.4 0.00 0.00 0.00 70 1017.1
20260510124555 51 32 3.5 14.8 0.00 0.00 0.00 69 1017.2
20260510123053 51 355 3.5 10.4 0.00 0.00 0.00 71 1017.2
20260510121552 50 360 4.3 14.8 0.00 0.00 0.00 72 1017.4
20260510120054 50 95 1.7 11.3 0.00 0.00 0.00 73 1017.7
20260510114600 50 40 2.6 11.3 0.00 0.00 0.00 74 1017.8
20260510113100 50 32 2.6 11.3 0.00 0.00 0.00 74 1017.9
20260510111555 50 91 2.6 12.2 0.00 0.00 0.00 74 1017.9
20260510110100 50 66 2.6 9.6 0.00 0.00 0.00 75 1018.0
20260510104557 51 34 2.6 12.2 0.00 0.00 0.00 75 1018.1
20260510103056 50 103 4.3 12.2 0.00 0.00 0.00 77 1018.1
20260510101603 50 40 2.6 8.7 0.00 0.00 0.00 79 1018.4
20260510100105 49 50 2.6 7.8 0.00 0.00 0.00 79 1018.5
20260510094559 49 57 1.7 12.2 0.00 0.00 0.00 80 1018.5
20260510093057 49 59 2.6 11.3 0.00 0.00 0.00 79 1018.3
20260510091555 50 23 3.5 13.0 0.00 0.00 0.00 79 1018.4
20260510090055 50 76 2.6 8.7 0.00 0.00 0.00 79 1018.6
20260510084609 50 32 3.5 9.6 0.00 0.00 0.00 82 1018.6
20260510083056 48 42 1.7 7.0 0.00 0.00 0.00 84 1018.7
20260510081604 48 15 3.5 8.7 0.00 0.00 0.00 85 1018.8
20260510080100 48 15 1.7 10.4 0.00 0.00 0.00 86 1018.8
20260510074604 48 109 2.6 8.7 0.00 0.00 0.00 86 1018.9
20260510073058 48 74 3.5 11.3 0.00 0.00 0.00 86 1018.7
20260510071551 48 10 3.5 9.6 0.00 0.00 0.00 86 1018.7
20260510070113 47 5 3.5 13.0 0.00 0.00 0.00 87 1018.7
20260510064558 47 25 3.5 10.4 0.00 0.00 0.00 87 1018.4
20260510063104 47 27 1.7 10.4 0.00 0.00 0.00 88 1018.4
20260510061559 47 49 2.6 11.3 0.00 0.00 0.00 89 1018.3
20260510060059 47 77 1.7 9.6 0.00 0.00 0.00 89 1018.4
20260510054601 47 37 1.7 13.9 0.00 0.00 0.00 89 1018.2
20260510053058 47 17 2.6 10.4 0.00 0.00 0.00 90 1018.3
20260510051608 46 105 2.6 8.7 0.00 0.00 0.00 90 1018.5
20260510044554 45 59 0.9 9.6 0.00 0.00 0.00 90 1018.4
20260510043052 45 42 0.9 5.2 0.00 0.00 0.00 90 1018.3
20260510041553 45 15 0.9 4.3 0.00 0.00 0.00 89 1018.4
20260510040107 45 17 0.9 7.0 0.00 0.00 0.00 89 1018.4
20260510034553 46 5 0.9 7.8 0.00 0.00 0.00 89 1018.4
20260510033100 46 44 2.6 7.8 0.00 0.00 0.00 89 1018.6
20260510031602 46 15 1.7 6.1 0.00 0.00 0.00 89 1018.8
20260510030058 46 41 2.6 7.8 0.00 0.00 0.00 89 1018.6
20260510024554 46 76 1.7 9.6 0.00 0.00 0.00 89 1018.7
20260510023056 46 24 1.7 8.7 0.00 0.00 0.00 89 1018.9
20260510021641 46 36 2.6 8.7 0.00 0.00 0.00 88 1019.0
20260510020058 46 32 2.6 10.4 0.00 0.00 0.00 88 1018.9
20260510014559 47 20 3.5 11.3 0.00 0.00 0.00 88 1019.0
20260510013100 47 0 1.7 8.7 0.00 0.00 0.00 87 1018.8
20260510011556 47 28 1.7 8.7 0.00 0.00 0.00 87 1019.0
20260510004552 47 16 2.6 11.3 0.00 0.00 0.00 87 1018.8
20260510003100 47 94 3.5 9.6 0.00 0.00 0.00 86 1018.9
20260510001553 47 55 1.7 9.6 0.00 0.00 0.00 86 1019.1
20260510000054 47 31 1.7 8.7 0.00 0.00 0.00 85 1019.1
20260509234550 47 0 2.6 9.6 0.00 0.00 0.00 85 1019.2
20260509233052 47 38 3.5 8.7 0.00 0.00 0.00 84 1019.1
20260509231558 47 360 0.9 7.8 0.00 0.00 0.00 83 1019.1
20260509230053 47 11 0.9 7.0 0.00 0.00 0.00 81 1019.3
20260509224552 48 27 1.7 8.7 0.00 0.00 0.00 77 1019.3
20260509223058 48 24 1.7 7.0 0.00 0.00 0.00 72 1019.2
20260509221552 49 0 0.0 7.8 0.00 0.00 0.00 69 1019.1
20260509220056 49 55 1.7 8.7 0.00 0.00 0.00 67 1018.8
20260509214555 50 22 1.7 7.0 0.00 0.00 0.00 66 1018.5
20260509213111 51 12 0.9 6.1 0.00 0.00 0.00 67 1018.5
20260509211602 51 0 0.0 0.9 0.00 0.00 0.00 66 1018.5
20260509210054 52 0 0.0 3.5 0.00 0.00 0.00 66 1018.4
20260509204553 52 0 0.0 0.0 0.00 0.00 0.00 64 1018.2
20260509203053 53 0 0.0 0.0 0.00 0.00 0.00 63 1017.9